Palm Springs, CA

3:41 AM PDT on April 26, 2017 (GMT -0700)
Palm Springs International

Weather History for KPSP - April, 2014

Change the Weather History Date:

Saturday, April 5, 2014

  Actual Average Record
Temperature  
Mean Temperature 65 °F 69 °F  
Max Temperature 80 °F 82 °F 104 °F (1989)
Min Temperature 50 °F 55 °F 38 °F (1955)
Degree Days  
Heating Degree Days 0 1  
Month to date heating degree days 8 5  
Since 1 July heating degree days 431 856  
Cooling Degree Days 0 5  
Month to date cooling degree days 2 24  
Year to date cooling degree days 277 144  
Growing Degree Days 15 (Base 50)    
Moisture  
Dew Point 35 °F    
Average Humidity 38    
Maximum Humidity 63    
Minimum Humidity 13    
Precipitation  
Precipitation 0.00 in 0.01 in 1.36 in (1926)
Month to date precipitation T 0.02  
Year to date precipitation 0.70 2.66  
Since 1 July precipitation 1.96  
Snow  
Snow 0.00 in - - ()
Month to date snowfall 0.0  
Year to date snowfall 0.0  
Snow Depth 0.00 in    
Sea Level Pressure  
Sea Level Pressure 29.89 in    
Wind  
Wind Speed 6 mph (WNW)    
Max Wind Speed 15 mph    
Max Gust Speed 20 mph    
Visibility 10 miles    
Events      
T = Trace of Precipitation, MM = Missing Value Source: NWS Daily Summary

Daily Weather History Graph

Daily Weather History Graph

Search for Another Location

Airport or City:

Trip Planner

Search our weather history database for the weather conditions in past years. The results will help you decide how hot, cold, wet, or windy it might be!

Date:

Astronomy

Apr. 05, 2014 Rise Set
Actual Time 6:28 AM PDT 7:09 PM PDT
Civil Twilight 6:02 AM PDT 7:35 PM PDT
Nautical Twilight 5:33 AM PDT 8:04 PM PDT
Astronomical Twilight 5:02 AM PDT 8:35 PM PDT
Moon 10:49 AM PDT (4/5) 12:13 AM PDT (4/5)
Length of Visible Light 13h 32m
Length of Day
12h 41m
Waxing Crescent, 35% of the Moon is Illuminated
Apr 5
Waxing Crescent
Apr 7
First Quarter
Apr 15
Full
Apr 22
Last Quarter
Apr 28
New

Hourly Weather History & Observations

Time (PDT) Temp. Dew Point Humidity Pressure Visibility Wind Dir Wind Speed Gust Speed Precip Events Conditions
12:53 AM 61.0 °F 36.0 °F 39% 29.84 in 10.0 mi NW 15.0 mph - N/A   Clear
1:53 AM 57.0 °F 37.0 °F 47% 29.83 in 10.0 mi South 4.6 mph - N/A   Clear
2:53 AM 55.0 °F 37.9 °F 53% 29.82 in 10.0 mi SSE 5.8 mph - N/A   Clear
3:53 AM 55.9 °F 37.9 °F 51% 29.82 in 10.0 mi SSE 3.5 mph - N/A   Clear
4:53 AM 53.1 °F 37.0 °F 55% 29.83 in 10.0 mi Calm Calm - N/A   Clear
5:53 AM 54.0 °F 37.0 °F 53% 29.85 in 10.0 mi Calm Calm - N/A   Clear
6:53 AM 51.1 °F 39.0 °F 63% 29.88 in 10.0 mi Calm Calm - N/A   Clear
7:53 AM 55.0 °F 37.9 °F 53% 29.90 in 10.0 mi Variable 4.6 mph - N/A   Clear
8:53 AM 60.1 °F 37.0 °F 42% 29.91 in 10.0 mi WNW 10.4 mph 20.7 mph N/A   Clear
9:53 AM 64.0 °F 34.0 °F 33% 29.93 in 10.0 mi SSW 5.8 mph - N/A   Clear
10:53 AM 69.1 °F 34.0 °F 27% 29.92 in 10.0 mi NW 12.7 mph 19.6 mph N/A   Clear
11:53 AM 71.1 °F 33.1 °F 25% 29.92 in 10.0 mi NNW 10.4 mph - N/A   Clear
12:53 PM 73.0 °F 30.9 °F 21% 29.91 in 10.0 mi NNW 8.1 mph - N/A   Clear
1:53 PM 75.9 °F 28.0 °F 17% 29.89 in 10.0 mi North - - N/A   Clear
2:53 PM 77.0 °F 24.1 °F 14% 29.87 in 10.0 mi Calm Calm - N/A   Clear
3:53 PM 79.0 °F 25.0 °F 14% 29.86 in 10.0 mi Calm Calm - N/A   Clear
4:53 PM 78.1 °F 27.0 °F 15% 29.86 in 10.0 mi NW 9.2 mph 17.3 mph N/A   Clear
5:53 PM 77.0 °F 34.0 °F 21% 29.86 in 10.0 mi NW 10.4 mph - N/A   Clear
6:53 PM 73.9 °F 39.0 °F 28% 29.87 in 10.0 mi NW 16.1 mph - N/A   Clear
7:53 PM 72.0 °F 41.0 °F 33% 29.89 in 10.0 mi NW 16.1 mph - N/A   Clear
8:53 PM 70.0 °F 39.9 °F 33% 29.92 in 10.0 mi NW 17.3 mph - N/A   Clear
9:53 PM 68.0 °F 41.0 °F 37% 29.95 in 10.0 mi NW 9.2 mph - N/A   Clear
10:53 PM 66.9 °F 39.0 °F 36% 29.97 in 10.0 mi WNW 5.8 mph - N/A   Clear
11:53 PM 66.0 °F 39.0 °F 37% 29.98 in 10.0 mi WNW 5.8 mph - N/A   Clear